Ft Lauderdale, FL

4:13 AM EDT on April 20, 2018 (GMT -0400)
Fort Lauderdale-Hollywood International

Weather History for KFLL - April, 2014

Change the Weather History Date:

Monday, April 14, 2014

  Actual Average Record
Temperature  
Mean Temperature 81 °F 76 °F  
Max Temperature 86 °F 83 °F 91 °F (1957)
Min Temperature 75 °F 70 °F 45 °F (1940)
Degree Days  
Heating Degree Days 0 0  
Month to date heating degree days 0 0  
Since 1 July heating degree days 81 111  
Cooling Degree Days 16 11  
Month to date cooling degree days 169 145  
Year to date cooling degree days 829 755  
Growing Degree Days 30 (Base 50)    
Moisture  
Dew Point 72 °F    
Average Humidity 76    
Maximum Humidity 94    
Minimum Humidity 57    
Precipitation  
Precipitation 0.00 in 0.10 in 2.45 in (2000)
Month to date precipitation 1.17 1.49  
Year to date precipitation 9.34 11.44  
Snow  
Snow 0.00 in - - ()
Month to date snowfall 0.0  
Since 1 July snowfall 0.0  
Snow Depth 0.00 in    
Sea Level Pressure  
Sea Level Pressure 29.96 in    
Wind  
Wind Speed 12 mph (SE)    
Max Wind Speed 20 mph    
Max Gust Speed 25 mph    
Visibility 10 miles    
Events      
T = Trace of Precipitation, MM = Missing Value Source: NWS Daily Summary

Daily Weather History Graph

Daily Weather History Graph

Search for Another Location

Airport or City:

Astronomy

Apr. 14, 2014 Rise Set
Actual Time 6:58 AM EDT 7:43 PM EDT
Civil Twilight 6:34 AM EDT 8:07 PM EDT
Nautical Twilight 6:07 AM EDT 8:34 PM EDT
Astronomical Twilight 5:39 AM EDT 9:03 PM EDT
Moon 7:22 PM EDT (4/14) 6:25 AM EDT (4/14)
Length of Visible Light 13h 32m
Length of Day
12h 45m
Full, 100% of the Moon is Illuminated
Apr 14
Full
Apr 15
Full
Apr 22
Last Quarter
Apr 29
New
May 6
First Quarter

Hourly Weather History & Observations

Time (EDT) Temp. Heat Index Dew Point Humidity Pressure Visibility Wind Dir Wind Speed Gust Speed Precip Events Conditions
12:07 AM 77.0 °F - 72.0 °F 84% 30.00 in 10.0 mi ESE 12.7 mph - N/A   Scattered Clouds
12:53 AM 77.0 °F - 72.0 °F 84% 29.99 in 10.0 mi ESE 11.5 mph - N/A   Scattered Clouds
1:53 AM 75.9 °F - 73.0 °F 91% 29.98 in 10.0 mi East 11.5 mph - N/A   Scattered Clouds
2:53 AM 75.9 °F - 72.0 °F 87% 29.96 in 10.0 mi ESE 9.2 mph - N/A   Scattered Clouds
3:53 AM 75.9 °F - 72.0 °F 87% 29.96 in 10.0 mi ESE 8.1 mph - N/A   Partly Cloudy
4:53 AM 75.9 °F - 73.0 °F 91% 29.95 in 10.0 mi ESE 6.9 mph - N/A   Scattered Clouds
5:53 AM 75.9 °F - 73.0 °F 91% 29.94 in 10.0 mi SE 10.4 mph - N/A   Partly Cloudy
6:53 AM 75.9 °F - 73.0 °F 91% 29.96 in 10.0 mi SE 9.2 mph - N/A   Partly Cloudy
7:16 AM 77.0 °F - 73.0 °F 88% 29.96 in 10.0 mi SE 8.1 mph - N/A   Mostly Cloudy
7:53 AM 78.1 °F - 73.0 °F 84% 29.97 in 10.0 mi SSE 9.2 mph - N/A   Mostly Cloudy
8:35 AM 79.0 °F - 73.0 °F 82% 29.98 in 10.0 mi SSE 10.4 mph - N/A   Mostly Cloudy
8:53 AM 79.0 °F - 73.0 °F 82% 29.99 in 10.0 mi SE 9.2 mph - N/A   Mostly Cloudy
9:53 AM 81.0 °F 84.9 °F 71.1 °F 72% 29.99 in 10.0 mi SSE 15.0 mph - N/A   Mostly Cloudy
10:53 AM 82.9 °F 87.0 °F 70.0 °F 65% 30.01 in 10.0 mi SE 16.1 mph - N/A   Scattered Clouds
11:53 AM 84.0 °F 87.8 °F 69.1 °F 61% 30.00 in 10.0 mi SE 17.3 mph - N/A   Scattered Clouds
12:53 PM 86.0 °F 90.1 °F 69.1 °F 57% 29.98 in 10.0 mi SE 15.0 mph - N/A   Scattered Clouds
1:53 PM 84.9 °F 89.4 °F 70.0 °F 61% 29.97 in 10.0 mi SE 17.3 mph - N/A   Scattered Clouds
2:53 PM 84.9 °F 90.7 °F 72.0 °F 65% 29.95 in 10.0 mi SE 17.3 mph 23.0 mph N/A   Mostly Cloudy
3:53 PM 84.9 °F 90.1 °F 71.1 °F 63% 29.93 in 10.0 mi SSE 13.8 mph - N/A   Mostly Cloudy
4:53 PM 82.9 °F 87.0 °F 70.0 °F 65% 29.92 in 10.0 mi SE 16.1 mph - N/A   Mostly Cloudy
5:53 PM 82.9 °F 87.5 °F 71.1 °F 67% 29.91 in 10.0 mi SE 17.3 mph - N/A   Mostly Cloudy
6:53 PM 81.0 °F 85.8 °F 73.0 °F 77% 29.91 in 10.0 mi SSE 13.8 mph - N/A   Mostly Cloudy
7:53 PM 80.1 °F 84.2 °F 73.0 °F 79% 29.92 in 10.0 mi SSE 9.2 mph - N/A   Mostly Cloudy
8:53 PM 79.0 °F - 73.0 °F 82% 29.93 in 10.0 mi SSE 10.4 mph - N/A   Mostly Cloudy
9:53 PM 79.0 °F - 73.0 °F 82% 29.94 in 10.0 mi SSE 9.2 mph - N/A   Mostly Cloudy
10:53 PM 79.0 °F - 73.9 °F 84% 29.94 in 10.0 mi SSE 8.1 mph - N/A   Scattered Clouds
11:53 PM 78.1 °F - 73.0 °F 84% 29.93 in 10.0 mi SE 8.1 mph - N/A   Partly Cloudy